Hourly Data Report for October 01, 2017

All times are specified in Local Standard Time (LST). Add 1 hour to adjust for Daylight Saving Time where and when it is observed.

CLYDE RIVER A
NUNAVUT

70°29'09.000" N
68°31'01.000" W
26.50 m
2400804
71090
YCY

Related Data

No related data is available for this station

Download Data

Hourly Data (October 2017)
Hourly Data Report for October 1, 2017
Temp Definition
°C
Dew Point Temp Definition
°C
Rel Hum Definition
%
Wind Dir Definition
10's deg

Wind Spd Definition
km/h
Visibility Definition
km
Stn Press Definition
kPa
Hmdx Definition


Wind Chill Definition


Weather Definition


TIME
00:00 Legend Double Dagger -0.4 -2.0 89 30 26 16.1 100.35   -7 LegendNANA
01:00 Legend Double Dagger -0.3 -1.7 90 32 32 16.1 100.34   -7 LegendNANA
02:00 Legend Double Dagger -0.6 -1.9 91 31 28 16.1 100.37   -7 LegendNANA
03:00 Legend Double Dagger -0.7 -2.1 90 32 37 16.1 100.33   -8 LegendNANA
04:00 Legend Double Dagger -1.1 -2.5 90 32 22 16.1 100.37   -7 LegendNANA
05:00 Legend Double Dagger -1.3 -2.6 91 32 11 16.1 100.41   -5 LegendNANA
06:00 Legend Double Dagger -2.1 -3.2 92 32 9 16.1 100.38   -6 LegendNANA
07:00 Legend Double Dagger -1.6 -3.0 90 26 5 16.1 100.39   -3 LegendNANA
08:00 Legend Double Dagger -1.7 -2.8 92 30 11 16.1 100.42   -6 LegendNANA
09:00 Legend Double Dagger -1.3 -2.7 90 29 11 16.1 100.43   -5 LegendNANA
10:00 Legend Double Dagger -0.8 -2.4 89 29 11 16.1 100.45   -5 Snow
11:00 Legend Double Dagger -0.6 -2.3 88 29 9 16.1 100.45   -4 Snow
12:00 Legend Double Dagger -1.4 -2.1 95 36 15 2.8 100.51   -6 Snow
13:00 Legend Double Dagger -1.1 -2.1 93 36 8 16.1 100.56   -4 LegendNANA
14:00 Legend Double Dagger -1.1 -2.8 88 33 11 16.1 100.59   -5 LegendNANA
15:00 Legend Double Dagger -1.3 -2.2 93 30 9 16.1 100.65   -5 LegendNANA
16:00 Legend Double Dagger -1.5 -2.5 93 30 11 16.1 100.68   -5 LegendNANA
17:00 Legend Double Dagger -1.7 -3.0 91 29 13 16.1 100.73   -6 LegendNANA
18:00 Legend Double Dagger -1.9 -3.2 91 30 11 16.1 100.74   -6 LegendNANA
19:00 Legend Double Dagger -2.0 -3.5 89 24 5 16.1 100.79   -4 LegendNANA
20:00 Legend Double Dagger -1.8 -3.8 87 22 8 16.1 100.78   -5 LegendNANA
21:00 Legend Double Dagger -4.1 -6.0 87 26 11 16.1 100.79   -9 LegendNANA
22:00 Legend Double Dagger -8.0 -9.4 90 29 8 16.1 100.79   -12 LegendNANA
23:00 Legend Double Dagger -8.0 -9.4 90 29 11 16.1 100.78   -13 LegendNANA

Notes on Data Quality.

Legend

  • E = Estimated
  • M = Missing
  • NA = Not Available
  • ‡ = Partner data that is not subject to review by the National Climate Archives
Date modified: